Location: Namasale
(1.5000°N, 32.6167°E)
Time: 17:58:40
(UTC+00:00)

Vanguard 1 Rocket - Pass Details

Date: 27 April 2021
Orbit: 651 x 4225 km, 34.3° (Epoch: 17 May)

Event Time Altitude Azimuth Distance (km) Brightness Sun altitude
Rises 16:34:09 0° 313° (NW) 3,149 11.4 -11.0°
Reaches altitude 10° 16:36:08 10° 316° (NW) 2,379 10.5 -11.5°
Maximum altitude 16:41:30 67° 39° (NE) 1,176 7.8 -12.8°
Enters shadow 16:48:49 17° 118° (ESE) 3,328 9.6 -14.6°
Drops below altitude 10° 16:51:10 10° 120° (ESE) 4,163 - -15.1°
Sets 16:55:46 0° 122° (ESE) 5,749 - -16.2°
